Tracking 29018 objects as of 14-Jun-2024
HD Live streaming from Space Station
objects crossing your sky now

STARLINK-31526

Track STARLINK-31526 now!
10-day predictions
STARLINK-31526 is classified as:


NORAD ID: 59016
Int'l Code: 2024-036U
Perigee: 453.5 km
Apogee: 455.3 km
Inclination: 53.2 °
Period: 93.5 minutes
Semi major axis: 6825 km
RCS: Unknown
Launch date: February 23, 2024
Source: United States (US)
Launch site: AIR FORCE WESTERN TEST RANGE (AFWTR)
Your satellite tracking list
Your tracking list is empty




NASA's NSSDC Master Catalog

Two Line Element Set (TLE):
1 59016U 24036U   24165.60560777 -.00001173  00000-0 -19340-4 0  9997
2 59016  53.1592 131.8663 0001332  84.9038 275.2119 15.39611414 18402
Source of the keplerian elements: AFSPC